Simultaneous Nadir Overpasses (SNOs) Predictions

Prediction of SNOs between NOAA-19 and TERRA Satellite Orbit:

Table of predicted SNOs for the next 14.0 days since TLE Epoch: 4/24/2021
Index Date (NOAA-19) Time (NOAA-19) Lat,Lon (NOAA-19) SZA (NOAA-19 ) Date (TERRA) Time (TERRA) Lat,Lon (TERRA) SZA (TERRA ) Distance(km) Time Diff (sec)
1 04/25/2021 00:21:37 80.18,-152.60 68.62 04/25/2021 00:22:47 80.20,-152.66 68.66 3.03 70
2 04/25/2021 01:12:38 -80.17, 14.78 111.39 04/25/2021 01:12:15 -80.16, 14.64 111.42 2.69 23
3 04/27/2021 06:45:49 80.19, 111.30 67.91 04/27/2021 06:45:57 80.16, 111.18 67.88 3.55 8
4 04/29/2021 12:19:01 -80.20,-152.10 112.78 04/29/2021 12:19:39 -80.19,-152.05 112.78 1.76 38
5 04/29/2021 13:10:00 80.18, 15.50 67.23 04/29/2021 13:09:05 80.19, 15.60 67.22 2.17 55
6 05/01/2021 17:52:12 80.20, -55.27 66.56 05/01/2021 17:53:20 80.21, -55.29 66.60 1.24 68
7 05/01/2021 18:43:11 -80.18, 112.23 113.44 05/01/2021 18:42:48 -80.18, 112.06 113.47 3.28 23
8 05/04/2021 00:16:23 80.19,-151.10 65.92 05/04/2021 00:16:29 80.19,-151.21 65.91 2.15 6
9 05/06/2021 05:49:33 -80.20, -54.43 114.71 05/06/2021 05:50:11 -80.21, -54.46 114.68 1.89 38



Historial Predications of SNOs between NOAA-19 and TERRA
